Find Starlink 34947

NORAD ID: 65184 Int'l Des: 2025-175 Owner: SPXS Country: US Constellation: starlink operational
LEOCIRCULARRETROGRADESSO

現在のビュー

3D地球を読み込み中...

About Starlink 34947

Starlink 34947 (NORAD 65184) is a starlink constellation satellite (v2 mini) launched Aug 14, 2025 by SPXS of US. It operates in LEO, CIRCULAR, RETROGRADE, SSO orbit with a mass of 575.00 kg.

次回通過

Passes for default location (London). Set your location on the main map for personalized predictions.

高度履歴

Loading altitude history...

軌道要素

1 65184U 25175L 26238.21140039 .00011394 00000-0 35463-3 0 9997
2 65184 97.2836 107.4964 0001727 81.0774 279.0664 15.33451752 58256
Epoch: Aug 26, 2026 • Age: 12 hours

現在のステータス

高度 493.2 km
遠地点 / 近地点 N/A
速度 7.62 km/s
衛星直下点 -71.84°S, 103.42°W
打ち上げ日 Aug 14, 2025
運用期間 1 year
タイプ internet

技術仕様

分類 Payload
質量 575.00 kg
乾燥質量 530.00 kg
総質量 575.00 kg
長さ 0.30 m
直径 4.10 m
スパン 29.00 m
形状 Box + pan
製造者 SPXS
バスタイプ Starlink V2MO
フェーズステータス In Orbit
所有者/国 SPXS/US

Most Searched